#timestamp,LO_Frequency,Hit,StdDev 
1627909215.9,286046997.7,N
1627909235.7,286046997.9,N
1627909255.6,286046997.3,N
1627909275.4,286046997.4,N
1627909295.2,286046996.1,N
1627909315.1,286046994.1,Y
1627909316.0,286046994.1,P
1627909335.8,286046995.6,N
1627909355.7,286046995.6,N
1627909375.5,286046995.8,N
1627909395.3,286046995.8,Y
1627909415.2,286046998.6,P
1627909435.0,286046999.0,N
1627909435.9,286046999.0,N
1627909455.7,286046998.6,N
1627909475.6,286046999.0,N
1627909495.4,286046999.1,N
1627909515.3,286046999.4,N
1627909535.1,286046996.5,Y
1627909555.8,286046998.9,P
1627909575.7,286046996.6,P
1627909595.5,286046999.2,N
1627909615.4,286046996.6,Y
1627909635.2,286047000.7,P
1627909655.0,286047001.0,N
1627909655.9,286047001.0,N
1627909675.8,286047001.1,N
1627909695.6,286047000.4,N
1627909715.4,286047000.9,N
1627909735.3,286046998.5,N
1627909755.1,286047001.1,N
1627909775.9,286046998.2,N
1627909795.7,286046998.9,N
1627909815.5,286046999.4,N
1627909835.4,286046996.8,N
1627909855.2,286046997.0,N
1627909875.0,286046998.6,N
1627909875.9,286046998.6,N
1627909895.8,286046998.5,N
1627909915.6,286046998.2,N
1627909935.5,286046998.2,N
1627909955.3,286046998.2,N
1627909975.1,286046998.5,N
1627909995.9,286046998.1,N
1627910015.7,286046996.7,N
1627910035.5,286046994.9,Y
1627910055.4,286046997.6,P
1627910075.2,286046997.8,P
1627910095.1,286046996.7,P
1627910096.0,286046996.7,Y
1627910115.8,286046998.9,P
1627910135.6,286046998.5,N
1627910155.5,286047001.1,N
1627910175.3,286047000.6,N
1627910195.1,286046998.2,N
1627910215.9,286047001.1,N
1627910235.7,286047000.3,N
1627910255.6,286047002.1,N
1627910275.4,286047001.3,N
1627910295.2,286047000.1,N
1627910315.1,286047002.3,N
1627910316.0,286047002.3,N
1627910335.8,286047002.3,N
1627910355.6,286046999.8,N
1627910375.5,286046999.8,N
1627910395.3,286047002.5,N
1627910415.2,286047002.8,N
1627910435.9,286047002.8,N
1627910455.7,286046999.8,N
1627910475.6,286047000.5,N
1627910495.4,286047000.9,N
1627910515.2,286046998.9,N
1627910535.1,286047000.7,N
1627910536.0,286047000.7,N
1627910555.8,286047001.1,N
1627910575.7,286047000.8,N
1627910595.5,286046998.1,N
1627910615.3,286047000.5,N
1627910635.2,286047002.1,N
1627910655.9,286047001.4,N
1627910675.7,286047002.0,N
1627910695.6,286047002.6,N
1627910715.4,286047001.3,N
1627910735.2,286047002.2,N
1627910755.1,286047002.8,N
1627910756.0,286047002.8,N
1627910775.8,286047000.2,N
1627910795.7,286047000.0,N
1627910815.5,286047000.3,N
1627910835.3,286047000.4,N
1627910855.2,286046998.2,N
1627910875.0,286047000.6,N
1627910875.9,286047000.6,N
1627910895.8,286046999.8,N
1627910915.6,286047000.2,N
1627910935.4,286047000.5,N
1627910955.3,286047002.6,N
1627910975.1,286047002.1,N
1627910976.0,286047002.1,N
1627910995.8,286046999.8,N
1627911015.7,286047002.6,N
1627911035.5,286047002.3,N
1627911055.3,286046999.8,N
1627911075.2,286047000.4,N
1627911095.0,286046998.4,N
1627911095.9,286046998.4,N
1627911115.8,286046998.3,N
1627911135.6,286046998.6,N
1627911155.4,286046999.3,N
1627911175.3,286046998.1,N
1627911195.1,286046999.2,N
1627911215.9,286047000.8,N
1627911235.7,286046998.4,N
1627911255.5,286047001.1,N
1627911275.4,286046998.5,N
1627911295.2,286047000.7,N
1627911315.0,286047000.7,N
1627911315.9,286047000.7,N
1627911335.8,286046998.1,N
1627911355.6,286047001.0,N
1627911375.5,286047000.2,N
1627911395.3,286047000.9,N
1627911415.1,286047002.4,N
1627911435.9,286047002.5,N
1627911455.7,286047002.3,N
1627911475.5,286047000.4,N
1627911495.4,286046999.7,N
1627911515.2,286047000.9,N
1627911535.0,286047001.9,N
1627911536.0,286047001.9,N
1627911555.8,286047000.1,N
1627911575.6,286047001.9,N
1627911595.5,286047002.1,N
1627911615.3,286047000.0,N
1627911635.1,286047002.4,N
1627911655.9,286047000.0,N
1627911675.7,286047002.6,N
1627911695.6,286047001.8,N
1627911715.4,286046999.7,N
1627911735.2,286047001.9,N
1627911755.1,286047002.6,N
1627911756.0,286047002.6,N
1627911775.8,286047002.8,N
1627911795.6,286047000.8,N
1627911815.5,286047001.1,N
1627911835.3,286047000.6,N
1627911855.2,286047000.2,N
1627911875.9,286047002.4,N
1627911895.7,286047004.0,Y
1627911915.6,286047002.4,P
1627911935.4,286047002.6,P
1627911955.2,286047002.3,P
1627911975.1,286047002.1,Y
1627911976.0,286047002.1,P
1627911995.8,286047002.2,P
1627912015.7,286047002.7,P
1627912035.5,286047000.4,N
1627912055.3,286047002.7,Y
1627912075.2,286046998.2,P
1627912095.0,286046998.7,N
1627912095.9,286046998.7,N
1627912115.7,286047000.8,N
1627912135.6,286046999.1,N
1627912155.4,286046999.6,N
1627912175.3,286046998.9,N
1627912195.1,286046999.3,N
1627912196.0,286046999.3,N
1627912215.8,286046996.9,N
1627912235.7,286046997.5,N
1627912255.5,286046997.2,N
1627912275.3,286046996.9,N
1627912295.2,286046997.2,N
1627912315.0,286046997.0,N
1627912315.9,286046997.0,N
1627912335.8,286046998.6,N
1627912355.6,286046997.6,N
1627912375.4,286046997.4,N
1627912395.3,286046996.9,N
1627912415.1,286046998.8,N
1627912435.8,286046999.0,N
1627912455.7,286046999.2,N
1627912475.5,286046996.5,N
1627912495.3,286046996.9,N
1627912515.2,286046998.2,N
1627912535.0,286047000.5,N
1627912535.9,286047000.5,N
1627912555.8,286047000.6,N
1627912575.6,286047000.5,N
1627912595.4,286047000.8,N
1627912615.3,286047000.5,N
1627912635.1,286047002.7,N
1627912655.9,286047000.1,N
1627912675.7,286046999.7,N
1627912695.5,286047000.9,N
1627912715.4,286047000.2,N
1627912735.2,286046999.9,N
1627912755.0,286046998.3,N
1627912755.9,286046998.3,N
1627912775.8,286047000.9,N
1627912795.6,286046999.2,N
